User: anonymous
Location: Heilwood
(40.6210°N, 78.9150°W)
Time: 09:39:46
(UTC-04:00)
Language:

BREEZE-M DEB (TANK) - Orbit

View from above orbital plane
View from above orbital plane
View from above satellite
View from above satellite

Ground track
Ground track

The orbit data is extracted from the following two-line orbital elements,

1 29649U 06056B   14243.55647426  .00004527  00000-0  57412-3 0  9967
2 29649 049.4904 256.5331 5427991 247.3567 341.8543 04.94517987136976
Epoch (UTC): 31 August 2014 13:21:19
Eccentricity: 0.5427991
inclination: 49.4904°
perigee height: 275 km
apogee height: 16074 km
right ascension of ascending node: 256.5331°
argument of perigee: 247.3567°
revolutions per day: 4.94517987
mean anomaly at epoch: 341.8543°
orbit number at epoch: 13697

The dashed part of the orbit path shows where the satellite is in the earth's shadow,  

DLR